| time (UTC) | temp F | wind direction | speed MPH | gust MPH | rain 1hr in | rain 24hr in | rain mn in | humidity % | barometer mb |
| 20260508122026 | 40 | 148 | 1.0 | 3.0 | 0.00 | 0.00 | 0.00 | 74 | 1004.0 |
| 20260508121522 | 40 | 306 | 0.0 | 4.0 | 0.00 | 0.00 | 0.00 | 74 | 1004.0 |
| 20260508121021 | 40 | 254 | 1.0 | 4.0 | 0.00 | 0.00 | 0.00 | 75 | 1003.9 |
| 20260508120519 | 40 | 276 | 0.0 | 3.0 | 0.00 | 0.00 | 0.00 | 74 | 1003.9 |
| 20260508120019 | 40 | 355 | 1.0 | 3.0 | 0.00 | 0.00 | 0.00 | 74 | 1003.9 |
| 20260508115518 | 40 | 247 | 1.0 | 3.0 | 0.00 | 0.00 | 0.00 | 76 | 1003.9 |
| 20260508115016 | 40 | 282 | 1.0 | 3.0 | 0.00 | 0.00 | 0.00 | 76 | 1003.9 |
| 20260508114516 | 39 | 138 | 0.0 | 2.0 | 0.00 | 0.00 | 0.00 | 79 | 1003.8 |
| 20260508114019 | 39 | 157 | 0.0 | 3.0 | 0.00 | 0.00 | 0.00 | 78 | 1003.8 |
| 20260508113515 | 39 | 142 | 0.0 | 3.0 | 0.00 | 0.00 | 0.00 | 81 | 1003.7 |
| 20260508113015 | 38 | 198 | 0.0 | 2.0 | 0.00 | 0.00 | 0.00 | 79 | 1003.6 |
| 20260508112514 | 38 | 171 | 0.0 | 2.0 | 0.00 | 0.00 | 0.00 | 81 | 1003.6 |
| 20260508112014 | 38 | 171 | 0.0 | 2.0 | 0.00 | 0.00 | 0.00 | 82 | 1003.5 |
| 20260508111514 | 37 | 148 | 0.0 | 2.0 | 0.00 | 0.00 | 0.00 | 82 | 1003.5 |
| 20260508111013 | 37 | 142 | 0.0 | 3.0 | 0.00 | 0.00 | 0.00 | 84 | 1003.4 |
| 20260508110513 | 37 | 143 | 1.0 | 3.0 | 0.00 | 0.00 | 0.00 | 83 | 1003.4 |
| 20260508110012 | 37 | 148 | 1.0 | 3.0 | 0.00 | 0.00 | 0.00 | 83 | 1003.4 |
| 20260508105512 | 36 | 187 | 1.0 | 2.0 | 0.00 | 0.00 | 0.00 | 85 | 1003.3 |
| 20260508105010 | 36 | 146 | 0.0 | 3.0 | 0.00 | 0.00 | 0.00 | 86 | 1003.3 |
| 20260508104510 | 36 | 164 | 1.0 | 3.0 | 0.00 | 0.00 | 0.00 | 85 | 1003.3 |
| 20260508104010 | 36 | 133 | 0.0 | 0.0 | 0.00 | 0.00 | 0.00 | 86 | 1003.2 |
| 20260508103510 | 36 | 133 | 0.0 | 0.0 | 0.00 | 0.00 | 0.00 | 86 | 1003.2 |
| 20260508103012 | 36 | 133 | 0.0 | 0.0 | 0.00 | 0.00 | 0.00 | 87 | 1003.0 |
| 20260508102510 | 35 | 133 | 0.0 | 1.0 | 0.00 | 0.00 | 0.00 | 84 | 1002.9 |
| 20260508102007 | 35 | 133 | 0.0 | 1.0 | 0.00 | 0.00 | 0.00 | 84 | 1002.8 |
| 20260508101520 | 35 | 133 | 0.0 | 1.0 | 0.00 | 0.00 | 0.00 | 84 | 1002.7 |
| 20260508101008 | 35 | 133 | 0.0 | 1.0 | 0.00 | 0.00 | 0.00 | 84 | 1002.7 |
| 20260508100506 | 35 | 133 | 0.0 | 1.0 | 0.00 | 0.00 | 0.00 | 85 | 1002.7 |
| 20260508100007 | 35 | 133 | 0.0 | 1.0 | 0.00 | 0.00 | 0.00 | 85 | 1002.7 |
| 20260508095507 | 35 | 133 | 0.0 | 1.0 | 0.00 | 0.00 | 0.00 | 85 | 1002.6 |
| 20260508095007 | 35 | 133 | 0.0 | 2.0 | 0.00 | 0.00 | 0.00 | 84 | 1002.6 |
| 20260508094505 | 35 | 133 | 0.0 | 2.0 | 0.00 | 0.00 | 0.00 | 84 | 1002.6 |
| 20260508094005 | 35 | 133 | 0.0 | 0.0 | 0.00 | 0.00 | 0.00 | 83 | 1002.6 |
| 20260508093506 | 34 | 133 | 0.0 | 1.0 | 0.00 | 0.00 | 0.00 | 83 | 1002.6 |
| 20260508093020 | 34 | 133 | 0.0 | 1.0 | 0.00 | 0.00 | 0.00 | 83 | 1002.5 |
| 20260508092506 | 34 | 133 | 0.0 | 2.0 | 0.00 | 0.00 | 0.00 | 84 | 1002.4 |
| 20260508092004 | 35 | 133 | 1.0 | 2.0 | 0.00 | 0.00 | 0.00 | 83 | 1002.5 |
| 20260508091503 | 35 | 133 | 1.0 | 2.0 | 0.00 | 0.00 | 0.00 | 83 | 1002.4 |
| 20260508091009 | 35 | 133 | 0.0 | 0.0 | 0.00 | 0.00 | 0.00 | 83 | 1002.5 |
| 20260508090504 | 35 | 133 | 0.0 | 2.0 | 0.00 | 0.00 | 0.00 | 83 | 1002.5 |
| 20260508090006 | 35 | 133 | 0.0 | 2.0 | 0.00 | 0.00 | 0.00 | 82 | 1002.4 |
| 20260508085501 | 35 | 133 | 1.0 | 2.0 | 0.00 | 0.00 | 0.00 | 82 | 1002.4 |
| 20260508085001 | 35 | 133 | 0.0 | 2.0 | 0.00 | 0.00 | 0.00 | 81 | 1002.3 |
| 20260508084600 | 35 | 133 | 0.0 | 2.0 | 0.00 | 0.00 | 0.00 | 81 | 1002.4 |
| 20260508084100 | 35 | 133 | 0.0 | 1.0 | 0.00 | 0.00 | 0.00 | 80 | 1002.4 |
| 20260508083601 | 35 | 133 | 0.0 | 2.0 | 0.00 | 0.00 | 0.00 | 80 | 1002.4 |
| 20260508083059 | 35 | 133 | 0.0 | 2.0 | 0.00 | 0.00 | 0.00 | 81 | 1002.4 |
| 20260508082601 | 35 | 133 | 1.0 | 2.0 | 0.00 | 0.00 | 0.00 | 81 | 1002.4 |
| 20260508082059 | 35 | 133 | 1.0 | 2.0 | 0.00 | 0.00 | 0.00 | 80 | 1002.3 |
| 20260508081614 | 35 | 133 | 1.0 | 2.0 | 0.00 | 0.00 | 0.00 | 80 | 1002.3 |
| 20260508081058 | 35 | 133 | 0.0 | 2.0 | 0.00 | 0.00 | 0.00 | 80 | 1002.4 |
| 20260508080556 | 36 | 133 | 1.0 | 2.0 | 0.00 | 0.00 | 0.00 | 81 | 1002.3 |
| 20260508080056 | 36 | 133 | 0.0 | 2.0 | 0.00 | 0.00 | 0.00 | 80 | 1002.3 |
| 20260508075556 | 36 | 133 | 1.0 | 2.0 | 0.00 | 0.00 | 0.00 | 80 | 1002.3 |
| 20260508075054 | 36 | 133 | 1.0 | 2.0 | 0.00 | 0.00 | 0.00 | 78 | 1002.4 |
| 20260508074555 | 36 | 133 | 0.0 | 1.0 | 0.00 | 0.00 | 0.00 | 77 | 1002.3 |
| 20260508074054 | 36 | 133 | 0.0 | 1.0 | 0.00 | 0.00 | 0.00 | 78 | 1002.3 |
| 20260508073553 | 36 | 133 | 0.0 | 1.0 | 0.00 | 0.00 | 0.00 | 80 | 1002.2 |
| 20260508073056 | 36 | 133 | 0.0 | 2.0 | 0.00 | 0.00 | 0.00 | 77 | 1002.2 |
| 20260508072552 | 36 | 133 | 0.0 | 2.0 | 0.00 | 0.00 | 0.00 | 78 | 1002.1 |
| 20260508072057 | 36 | 133 | 0.0 | 2.0 | 0.00 | 0.00 | 0.00 | 78 | 1002.1 |
| 20260508071552 | 36 | 133 | 0.0 | 2.0 | 0.00 | 0.00 | 0.00 | 78 | 1002.2 |
| 20260508071050 | 36 | 133 | 0.0 | 2.0 | 0.00 | 0.00 | 0.00 | 77 | 1002.2 |
| 20260508070550 | 37 | 133 | 0.0 | 0.0 | 0.00 | 0.00 | 0.00 | 78 | 1002.3 |
| 20260508070050 | 37 | 133 | 0.0 | 0.0 | 0.00 | 0.00 | 0.00 | 78 | 1002.3 |
| 20260508065553 | 37 | 133 | 0.0 | 2.0 | 0.00 | 0.00 | 0.00 | 78 | 1002.3 |
| 20260508065048 | 37 | 133 | 0.0 | 2.0 | 0.00 | 0.00 | 0.00 | 76 | 1002.3 |
| 20260508064548 | 37 | 133 | 0.0 | 1.0 | 0.00 | 0.00 | 0.00 | 76 | 1002.3 |
| 20260508064047 | 37 | 133 | 0.0 | 2.0 | 0.00 | 0.00 | 0.00 | 76 | 1002.3 |
| 20260508063547 | 37 | 133 | 0.0 | 2.0 | 0.00 | 0.00 | 0.00 | 75 | 1002.3 |
| 20260508063046 | 38 | 133 | 0.0 | 2.0 | 0.00 | 0.00 | 0.00 | 75 | 1002.3 |
| 20260508062544 | 38 | 133 | 0.0 | 2.0 | 0.00 | 0.00 | 0.00 | 76 | 1002.3 |
| 20260508062043 | 38 | 133 | 0.0 | 2.0 | 0.00 | 0.00 | 0.00 | 73 | 1002.3 |
| 20260508061541 | 38 | 133 | 0.0 | 2.0 | 0.00 | 0.00 | 0.00 | 73 | 1002.2 |
| 20260508061041 | 38 | 133 | 0.0 | 2.0 | 0.00 | 0.00 | 0.00 | 73 | 1002.2 |
| 20260508060541 | 39 | 133 | 0.0 | 1.0 | 0.00 | 0.00 | 0.00 | 72 | 1002.3 |
| 20260508060043 | 39 | 133 | 0.0 | 1.0 | 0.00 | 0.00 | 0.00 | 71 | 1002.2 |
| 20260508055539 | 39 | 133 | 0.0 | 0.0 | 0.00 | 0.00 | 0.00 | 71 | 1002.3 |
| 20260508055039 | 39 | 133 | 0.0 | 0.0 | 0.00 | 0.00 | 0.00 | 71 | 1002.4 |
| 20260508054553 | 39 | 133 | 0.0 | 0.0 | 0.00 | 0.00 | 0.00 | 71 | 1002.4 |
| 20260508054037 | 39 | 133 | 0.0 | 1.0 | 0.00 | 0.00 | 0.00 | 71 | 1002.4 |
| 20260508053540 | 40 | 133 | 0.0 | 1.0 | 0.00 | 0.00 | 0.00 | 72 | 1002.5 |
| 20260508053040 | 40 | 133 | 0.0 | 2.0 | 0.00 | 0.00 | 0.00 | 72 | 1002.5 |
| 20260508052536 | 40 | 133 | 0.0 | 2.0 | 0.00 | 0.00 | 0.00 | 72 | 1002.5 |
| 20260508052036 | 39 | 133 | 1.0 | 2.0 | 0.00 | 0.00 | 0.00 | 72 | 1002.5 |
| 20260508051535 | 39 | 127 | 0.0 | 2.0 | 0.00 | 0.00 | 0.00 | 73 | 1002.6 |
| 20260508051034 | 39 | 127 | 1.0 | 2.0 | 0.00 | 0.00 | 0.00 | 73 | 1002.6 |
| 20260508050534 | 39 | 121 | 1.0 | 2.0 | 0.00 | 0.00 | 0.00 | 74 | 1002.7 |
| 20260508050040 | 39 | 121 | 0.0 | 2.0 | 0.00 | 0.00 | 0.00 | 75 | 1002.7 |
| 20260508045532 | 39 | 115 | 0.0 | 2.0 | 0.00 | 0.00 | 0.00 | 76 | 1002.7 |
| 20260508045032 | 39 | 115 | 1.0 | 2.0 | 0.00 | 0.00 | 0.00 | 77 | 1002.8 |
| 20260508044531 | 39 | 123 | 1.0 | 2.0 | 0.00 | 0.00 | 0.00 | 79 | 1002.7 |
| 20260508044030 | 39 | 123 | 1.0 | 3.0 | 0.00 | 0.00 | 0.00 | 79 | 1002.7 |
| 20260508043529 | 39 | 126 | 1.0 | 3.0 | 0.00 | 0.00 | 0.00 | 79 | 1002.7 |
| 20260508043028 | 39 | 126 | 0.0 | 3.0 | 0.00 | 0.00 | 0.00 | 79 | 1002.8 |
| 20260508042528 | 39 | 213 | 0.0 | 2.0 | 0.00 | 0.00 | 0.00 | 79 | 1002.7 |
| 20260508042027 | 39 | 213 | 0.0 | 1.0 | 0.00 | 0.00 | 0.00 | 79 | 1002.8 |
| 20260508041532 | 39 | 213 | 0.0 | 2.0 | 0.00 | 0.00 | 0.00 | 79 | 1002.8 |
| 20260508041025 | 39 | 213 | 0.0 | 2.0 | 0.00 | 0.00 | 0.00 | 79 | 1002.8 |
| 20260508040524 | 40 | 213 | 0.0 | 1.0 | 0.00 | 0.00 | 0.00 | 72 | 1002.8 |
| 20260508040023 | 40 | 213 | 0.0 | 1.0 | 0.00 | 0.00 | 0.00 | 76 | 1002.7 |
| 20260508035523 | 40 | 213 | 0.0 | 2.0 | 0.00 | 0.00 | 0.00 | 74 | 1002.7 |
| 20260508035023 | 40 | 213 | 0.0 | 2.0 | 0.00 | 0.00 | 0.00 | 77 | 1002.7 |
| 20260508034523 | 40 | 213 | 0.0 | 2.0 | 0.00 | 0.00 | 0.00 | 77 | 1002.7 |
| 20260508034023 | 40 | 213 | 1.0 | 2.0 | 0.00 | 0.00 | 0.00 | 75 | 1002.7 |
| 20260508033522 | 40 | 213 | 0.0 | 1.0 | 0.00 | 0.00 | 0.00 | 74 | 1002.7 |
| 20260508033033 | 40 | 213 | 0.0 | 0.0 | 0.00 | 0.00 | 0.00 | 72 | 1002.8 |
| 20260508032525 | 40 | 213 | 0.0 | 0.0 | 0.00 | 0.00 | 0.00 | 70 | 1002.8 |
| 20260508032022 | 40 | 213 | 0.0 | 0.0 | 0.00 | 0.00 | 0.00 | 70 | 1002.9 |
| 20260508031524 | 40 | 213 | 0.0 | 0.0 | 0.00 | 0.00 | 0.00 | 70 | 1002.8 |
| 20260508031022 | 40 | 213 | 0.0 | 0.0 | 0.00 | 0.00 | 0.00 | 68 | 1002.8 |
| 20260508030522 | 40 | 213 | 0.0 | 0.0 | 0.00 | 0.00 | 0.00 | 70 | 1002.8 |
| 20260508030022 | 40 | 213 | 0.0 | 0.0 | 0.00 | 0.00 | 0.00 | 68 | 1002.8 |
| 20260508025521 | 40 | 213 | 0.0 | 0.0 | 0.00 | 0.00 | 0.00 | 69 | 1002.8 |
| 20260508025020 | 40 | 213 | 0.0 | 0.0 | 0.00 | 0.00 | 0.00 | 69 | 1002.8 |
| 20260508024522 | 40 | 213 | 0.0 | 0.0 | 0.00 | 0.00 | 0.00 | 68 | 1002.8 |
| 20260508024020 | 40 | 213 | 0.0 | 2.0 | 0.00 | 0.00 | 0.00 | 69 | 1002.8 |
| 20260508023520 | 40 | 213 | 0.0 | 2.0 | 0.00 | 0.00 | 0.00 | 69 | 1002.8 |
| 20260508023035 | 40 | 232 | 1.0 | 2.0 | 0.00 | 0.00 | 0.00 | 69 | 1002.9 |
| 20260508022520 | 40 | 232 | 0.0 | 2.0 | 0.00 | 0.00 | 0.00 | 68 | 1002.9 |
| 20260508022020 | 40 | 232 | 1.0 | 2.0 | 0.00 | 0.00 | 0.00 | 68 | 1002.8 |
| 20260508021521 | 40 | 232 | 0.0 | 2.0 | 0.00 | 0.00 | 0.00 | 68 | 1002.9 |
| 20260508021019 | 40 | 232 | 1.0 | 2.0 | 0.00 | 0.00 | 0.00 | 67 | 1002.8 |
| 20260508020521 | 40 | 301 | 0.0 | 1.0 | 0.00 | 0.00 | 0.00 | 66 | 1002.8 |
| 20260508020019 | 41 | 301 | 0.0 | 1.0 | 0.00 | 0.00 | 0.00 | 66 | 1002.8 |
| 20260508015519 | 41 | 301 | 0.0 | 0.0 | 0.00 | 0.00 | 0.00 | 68 | 1002.8 |
| 20260508015019 | 41 | 301 | 0.0 | 0.0 | 0.00 | 0.00 | 0.00 | 65 | 1002.8 |
| 20260508014519 | 41 | 301 | 0.0 | 1.0 | 0.00 | 0.00 | 0.00 | 61 | 1002.8 |
| 20260508014019 | 41 | 301 | 0.0 | 1.0 | 0.00 | 0.00 | 0.00 | 61 | 1002.7 |
| 20260508013519 | 41 | 301 | 0.0 | 1.0 | 0.00 | 0.00 | 0.00 | 63 | 1002.7 |
| 20260508013020 | 41 | 301 | 0.0 | 1.0 | 0.00 | 0.00 | 0.00 | 64 | 1002.7 |
| 20260508012518 | 41 | 301 | 0.0 | 2.0 | 0.00 | 0.00 | 0.00 | 63 | 1002.8 |
| 20260508012018 | 42 | 301 | 0.0 | 2.0 | 0.00 | 0.00 | 0.00 | 62 | 1002.7 |
| 20260508011518 | 42 | 301 | 0.0 | 2.0 | 0.00 | 0.00 | 0.00 | 61 | 1002.7 |
| 20260508011018 | 42 | 301 | 0.0 | 2.0 | 0.00 | 0.00 | 0.00 | 60 | 1002.7 |
| 20260508010517 | 42 | 301 | 0.0 | 2.0 | 0.00 | 0.01 | 0.00 | 59 | 1002.7 |
| 20260508010034 | 43 | 301 | 0.0 | 1.0 | 0.00 | 0.01 | 0.00 | 59 | 1002.7 |
| 20260508005516 | 44 | 301 | 0.0 | 2.0 | 0.00 | 0.01 | 0.00 | 57 | 1002.6 |
| 20260508005017 | 44 | 301 | 0.0 | 2.0 | 0.00 | 0.01 | 0.00 | 57 | 1002.6 |
| 20260508004522 | 44 | 320 | 0.0 | 1.0 | 0.00 | 0.01 | 0.00 | 55 | 1002.6 |
| 20260508004016 | 44 | 320 | 0.0 | 2.0 | 0.00 | 0.01 | 0.00 | 55 | 1002.5 |
| 20260508003519 | 44 | 323 | 0.0 | 2.0 | 0.00 | 0.01 | 0.00 | 54 | 1002.4 |
| 20260508003020 | 45 | 333 | 0.0 | 2.0 | 0.00 | 0.01 | 0.00 | 56 | 1002.3 |
| 20260508002515 | 45 | 319 | 0.0 | 3.0 | 0.00 | 0.01 | 0.00 | 56 | 1002.3 |
| 20260508002018 | 45 | 322 | 1.0 | 7.0 | 0.00 | 0.01 | 0.00 | 56 | 1002.2 |
| 20260508001526 | 46 | 296 | 2.0 | 7.0 | 0.00 | 0.01 | 0.00 | 52 | 1002.3 |
| 20260508001014 | 46 | 339 | 0.0 | 2.0 | 0.00 | 0.01 | 0.00 | 55 | 1002.3 |
| 20260508000514 | 46 | 339 | 0.0 | 2.0 | 0.00 | 0.02 | 0.00 | 53 | 1002.2 |
| 20260508000019 | 47 | 340 | 0.0 | 3.0 | 0.00 | 0.02 | 0.00 | 53 | 1002.2 |
| 20260507235514 | 47 | 286 | 0.0 | 3.0 | 0.00 | 0.02 | 0.00 | 55 | 1002.1 |
| 20260507235014 | 47 | 319 | 0.0 | 3.0 | 0.00 | 0.02 | 0.00 | 54 | 1002.1 |
| 20260507234517 | 47 | 327 | 0.0 | 3.0 | 0.00 | 0.02 | 0.00 | 53 | 1002.1 |
| 20260507234013 | 47 | 337 | 1.0 | 5.0 | 0.00 | 0.02 | 0.00 | 49 | 1002.1 |
| 20260507233513 | 48 | 323 | 1.0 | 9.0 | 0.00 | 0.02 | 0.00 | 50 | 1002.1 |
| 20260507233013 | 48 | 310 | 4.0 | 9.0 | 0.00 | 0.02 | 0.00 | 51 | 1002.1 |
| 20260507232513 | 48 | 294 | 1.0 | 5.0 | 0.00 | 0.02 | 0.00 | 53 | 1002.1 |
| 20260507232017 | 48 | 343 | 2.0 | 5.0 | 0.00 | 0.02 | 0.00 | 50 | 1002.1 |
| 20260507231513 | 48 | 326 | 1.0 | 8.0 | 0.00 | 0.02 | 0.00 | 51 | 1002.1 |
| 20260507231013 | 48 | 296 | 3.0 | 8.0 | 0.00 | 0.02 | 0.00 | 51 | 1002.1 |
| 20260507230512 | 48 | 276 | 3.0 | 8.0 | 0.00 | 0.02 | 0.00 | 52 | 1002.1 |
| 20260507230013 | 49 | 311 | 3.0 | 8.0 | 0.00 | 0.02 | 0.00 | 52 | 1002.2 |
| 20260507225511 | 50 | 297 | 2.0 | 6.0 | 0.00 | 0.02 | 0.00 | 49 | 1002.2 |
| 20260507225011 | 50 | 287 | 3.0 | 10.0 | 0.00 | 0.02 | 0.00 | 48 | 1002.2 |
| 20260507224511 | 49 | 292 | 5.0 | 10.0 | 0.00 | 0.02 | 0.00 | 45 | 1002.1 |
| 20260507224009 | 49 | 306 | 3.0 | 11.0 | 0.00 | 0.02 | 0.00 | 46 | 1002.1 |
| 20260507223508 | 49 | 293 | 2.0 | 12.0 | 0.00 | 0.02 | 0.00 | 50 | 1002.2 |
| 20260507223010 | 49 | 274 | 4.0 | 12.0 | 0.00 | 0.02 | 0.00 | 48 | 1002.1 |
| 20260507222507 | 49 | 334 | 3.0 | 8.0 | 0.00 | 0.02 | 0.00 | 49 | 1002.1 |
| 20260507222008 | 48 | 292 | 3.0 | 6.0 | 0.00 | 0.02 | 0.00 | 52 | 1002.2 |
| 20260507221508 | 48 | 350 | 2.0 | 8.0 | 0.00 | 0.02 | 0.00 | 51 | 1002.2 |
| 20260507221008 | 48 | 309 | 3.0 | 9.0 | 0.00 | 0.02 | 0.00 | 49 | 1002.1 |
| 20260507220511 | 49 | 293 | 3.0 | 12.0 | 0.00 | 0.02 | 0.00 | 53 | 1002.1 |
| 20260507220007 | 49 | 312 | 2.0 | 12.0 | 0.00 | 0.02 | 0.00 | 48 | 1002.3 |
| 20260507215507 | 49 | 313 | 4.0 | 14.0 | 0.00 | 0.02 | 0.00 | 46 | 1002.2 |
| 20260507215007 | 49 | 342 | 5.0 | 14.0 | 0.00 | 0.02 | 0.00 | 45 | 1002.2 |
| 20260507214506 | 49 | 332 | 4.0 | 14.0 | 0.00 | 0.02 | 0.00 | 47 | 1002.2 |
| 20260507214006 | 49 | 311 | 5.0 | 14.0 | 0.00 | 0.02 | 0.00 | 46 | 1002.1 |
| 20260507213506 | 49 | 327 | 3.0 | 9.0 | 0.00 | 0.02 | 0.00 | 48 | 1002.2 |
| 20260507213017 | 50 | 284 | 3.0 | 13.0 | 0.00 | 0.02 | 0.00 | 48 | 1002.1 |
| 20260507212505 | 50 | 279 | 5.0 | 13.0 | 0.00 | 0.02 | 0.00 | 48 | 1002.1 |
| 20260507212006 | 50 | 291 | 5.0 | 14.0 | 0.00 | 0.02 | 0.00 | 44 | 1002.0 |
| 20260507211505 | 50 | 325 | 6.0 | 15.0 | 0.00 | 0.02 | 0.00 | 44 | 1002.0 |
| 20260507211004 | 51 | 320 | 8.0 | 15.0 | 0.00 | 0.02 | 0.00 | 42 | 1002.0 |
| 20260507210507 | 53 | 295 | 6.0 | 12.0 | 0.00 | 0.07 | 0.00 | 44 | 1002.0 |
| 20260507210019 | 52 | 305 | 6.0 | 12.0 | 0.00 | 0.07 | 0.00 | 42 | 1002.0 |
| 20260507205504 | 52 | 292 | 5.0 | 11.0 | 0.00 | 0.07 | 0.00 | 46 | 1001.8 |
| 20260507205004 | 51 | 297 | 4.0 | 11.0 | 0.00 | 0.07 | 0.00 | 45 | 1001.8 |
| 20260507204504 | 51 | 340 | 5.0 | 15.0 | 0.00 | 0.07 | 0.00 | 43 | 1001.8 |
| 20260507204004 | 51 | 259 | 6.0 | 15.0 | 0.00 | 0.07 | 0.00 | 43 | 1001.8 |
| 20260507203504 | 52 | 274 | 3.0 | 15.0 | 0.00 | 0.07 | 0.00 | 48 | 1001.8 |
| 20260507203003 | 52 | 258 | 8.0 | 15.0 | 0.00 | 0.07 | 0.00 | 46 | 1001.8 |
| 20260507202502 | 53 | 327 | 7.0 | 13.0 | 0.00 | 0.07 | 0.00 | 42 | 1001.7 |
| 20260507202003 | 53 | 298 | 5.0 | 12.0 | 0.00 | 0.07 | 0.00 | 41 | 1001.7 |
| 20260507201508 | 54 | 314 | 4.0 | 12.0 | 0.00 | 0.07 | 0.00 | 43 | 1001.7 |
| 20260507201002 | 53 | 301 | 6.0 | 12.0 | 0.00 | 0.07 | 0.00 | 44 | 1001.7 |
| 20260507200502 | 52 | 329 | 4.0 | 17.0 | 0.00 | 0.08 | 0.00 | 46 | 1001.7 |
| 20260507200008 | 52 | 344 | 7.0 | 17.0 | 0.00 | 0.08 | 0.00 | 45 | 1001.8 |
| 20260507195501 | 53 | 312 | 8.0 | 17.0 | 0.00 | 0.08 | 0.00 | 41 | 1001.7 |
| 20260507195003 | 53 | 314 | 7.0 | 17.0 | 0.00 | 0.08 | 0.00 | 48 | 1001.7 |
| 20260507194502 | 53 | 253 | 7.0 | 14.0 | 0.00 | 0.08 | 0.00 | 44 | 1001.7 |
| 20260507194104 | 53 | 261 | 8.0 | 14.0 | 0.00 | 0.08 | 0.00 | 47 | 1001.7 |
| 20260507194001 | 53 | 302 | 8.0 | 14.0 | 0.00 | 0.08 | 0.00 | 44 | 1001.8 |
| 20260507193600 | 53 | 297 | 5.0 | 15.0 | 0.00 | 0.08 | 0.00 | 42 | 1001.7 |
| 20260507193132 | 53 | 292 | 7.0 | 15.0 | 0.00 | 0.08 | 0.00 | 47 | 1001.8 |
| 20260507192559 | 53 | 325 | 4.0 | 16.0 | 0.00 | 0.08 | 0.00 | 44 | 1001.8 |
| 20260507192102 | 54 | 254 | 5.0 | 16.0 | 0.00 | 0.08 | 0.00 | 45 | 1001.7 |
| 20260507191608 | 53 | 293 | 7.0 | 11.0 | 0.00 | 0.08 | 0.00 | 47 | 1001.8 |
| 20260507191100 | 53 | 309 | 5.0 | 13.0 | 0.00 | 0.08 | 0.00 | 43 | 1001.7 |
| 20260507190558 | 53 | 319 | 5.0 | 14.0 | 0.00 | 0.08 | 0.00 | 45 | 1001.8 |
| 20260507190058 | 53 | 258 | 5.0 | 14.0 | 0.00 | 0.11 | 0.00 | 48 | 1001.9 |
| 20260507185557 | 53 | 355 | 7.0 | 14.0 | 0.00 | 0.11 | 0.00 | 44 | 1001.8 |
| 20260507185057 | 53 | 269 | 7.0 | 14.0 | 0.00 | 0.11 | 0.00 | 43 | 1001.8 |
| 20260507184559 | 54 | 301 | 8.0 | 14.0 | 0.00 | 0.11 | 0.00 | 44 | 1001.9 |
| 20260507184100 | 53 | 288 | 6.0 | 14.0 | 0.00 | 0.11 | 0.00 | 44 | 1001.9 |
| 20260507183555 | 52 | 360 | 6.0 | 17.0 | 0.00 | 0.11 | 0.00 | 47 | 1001.9 |
| 20260507183102 | 53 | 319 | 9.0 | 17.0 | 0.00 | 0.11 | 0.00 | 42 | 1001.8 |
| 20260507182555 | 53 | 319 | 3.0 | 14.0 | 0.00 | 0.11 | 0.00 | 47 | 1001.9 |
| 20260507182054 | 53 | 298 | 7.0 | 17.0 | 0.00 | 0.11 | 0.00 | 44 | 1001.9 |
| 20260507181554 | 52 | 346 | 8.0 | 17.0 | 0.00 | 0.11 | 0.00 | 51 | 1001.9 |
| 20260507181054 | 52 | 321 | 6.0 | 17.0 | 0.00 | 0.11 | 0.00 | 44 | 1001.9 |
| 20260507180554 | 52 | 310 | 6.0 | 17.0 | 0.00 | 0.11 | 0.00 | 50 | 1001.9 |
| 20260507180056 | 52 | 355 | 10.0 | 17.0 | 0.00 | 0.15 | 0.00 | 45 | 1001.8 |
| 20260507175559 | 52 | 302 | 8.0 | 17.0 | 0.00 | 0.15 | 0.00 | 46 | 1001.8 |
| 20260507175054 | 53 | 311 | 7.0 | 13.0 | 0.00 | 0.15 | 0.00 | 49 | 1001.9 |
| 20260507174600 | 53 | 266 | 5.0 | 13.0 | 0.00 | 0.15 | 0.00 | 48 | 1001.8 |
| 20260507174056 | 52 | 304 | 4.0 | 17.0 | 0.00 | 0.15 | 0.00 | 50 | 1001.8 |
| 20260507173551 | 51 | 346 | 5.0 | 17.0 | 0.00 | 0.15 | 0.00 | 56 | 1001.8 |
| 20260507173128 | 51 | 260 | 7.0 | 14.0 | 0.00 | 0.15 | 0.00 | 52 | 1001.9 |
| 20260507172554 | 52 | 288 | 9.0 | 14.0 | 0.00 | 0.15 | 0.00 | 50 | 1001.9 |
| 20260507172051 | 52 | 321 | 7.0 | 13.0 | 0.00 | 0.15 | 0.00 | 47 | 1001.9 |
| 20260507171551 | 52 | 261 | 5.0 | 13.0 | 0.00 | 0.15 | 0.00 | 48 | 1002.0 |
| 20260507171049 | 52 | 337 | 6.0 | 17.0 | 0.00 | 0.15 | 0.00 | 52 | 1001.9 |
| 20260507170551 | 51 | 290 | 6.0 | 17.0 | 0.00 | 0.15 | 0.00 | 50 | 1001.9 |
| 20260507170050 | 51 | 280 | 7.0 | 17.0 | 0.00 | 0.21 | 0.00 | 50 | 1001.9 |
| 20260507165547 | 51 | 265 | 10.0 | 17.0 | 0.00 | 0.21 | 0.00 | 50 | 1002.2 |
| 20260507165049 | 51 | 275 | 8.0 | 14.0 | 0.00 | 0.21 | 0.00 | 52 | 1002.1 |
| 20260507164553 | 50 | 322 | 5.0 | 13.0 | 0.00 | 0.21 | 0.00 | 51 | 1002.1 |
| 20260507164044 | 50 | 19 | 6.0 | 13.0 | 0.00 | 0.21 | 0.00 | 51 | 1002.1 |
| 20260507163544 | 49 | 304 | 5.0 | 13.0 | 0.00 | 0.21 | 0.00 | 52 | 1002.1 |
| 20260507163043 | 48 | 260 | 4.0 | 14.0 | 0.00 | 0.21 | 0.00 | 59 | 1002.4 |
| 20260507162543 | 48 | 343 | 7.0 | 14.0 | 0.00 | 0.21 | 0.00 | 59 | 1002.5 |
| 20260507162042 | 49 | 313 | 4.0 | 16.0 | 0.00 | 0.21 | 0.00 | 55 | 1002.6 |
| 20260507161549 | 49 | 325 | 7.0 | 13.0 | 0.00 | 0.21 | 0.00 | 53 | 1002.7 |
| 20260507161042 | 49 | 323 | 6.0 | 13.0 | 0.00 | 0.21 | 0.00 | 56 | 1002.9 |
| 20260507160542 | 49 | 323 | 6.0 | 13.0 | 0.00 | 0.33 | 0.00 | 61 | 1002.9 |
| 20260507160059 | 49 | 325 | 6.0 | 13.0 | 0.00 | 0.33 | 0.00 | 61 | 1002.9 |
| 20260507155538 | 48 | 306 | 5.0 | 13.0 | 0.00 | 0.33 | 0.00 | 56 | 1002.9 |
| 20260507155040 | 48 | 342 | 5.0 | 10.0 | 0.00 | 0.33 | 0.00 | 56 | 1002.9 |
| 20260507154538 | 48 | 285 | 4.0 | 14.0 | 0.00 | 0.33 | 0.00 | 55 | 1003.0 |
| 20260507154037 | 48 | 342 | 6.0 | 14.0 | 0.00 | 0.33 | 0.00 | 60 | 1003.0 |
| 20260507153537 | 47 | 311 | 3.0 | 14.0 | 0.00 | 0.33 | 0.00 | 58 | 1002.9 |
| 20260507153037 | 48 | 276 | 7.0 | 16.0 | 0.00 | 0.33 | 0.00 | 58 | 1003.0 |
| 20260507152537 | 47 | 324 | 7.0 | 16.0 | 0.00 | 0.33 | 0.00 | 60 | 1003.1 |
| 20260507152036 | 47 | 310 | 6.0 | 13.0 | 0.00 | 0.33 | 0.00 | 60 | 1003.2 |
| 20260507151534 | 47 | 302 | 6.0 | 13.0 | 0.00 | 0.33 | 0.00 | 57 | 1003.2 |
| 20260507151034 | 47 | 313 | 5.0 | 11.0 | 0.00 | 0.33 | 0.00 | 68 | 1003.3 |
| 20260507150536 | 46 | 326 | 5.0 | 15.0 | 0.00 | 0.40 | 0.00 | 63 | 1003.2 |
| 20260507150034 | 46 | 315 | 4.0 | 15.0 | 0.00 | 0.40 | 0.00 | 61 | 1003.2 |
| 20260507145533 | 45 | 239 | 8.0 | 15.0 | 0.00 | 0.40 | 0.00 | 59 | 1003.0 |
| 20260507145033 | 46 | 321 | 6.0 | 15.0 | 0.00 | 0.40 | 0.00 | 59 | 1003.1 |
| 20260507144544 | 47 | 310 | 6.0 | 13.0 | 0.00 | 0.40 | 0.00 | 66 | 1003.0 |
| 20260507144036 | 46 | 313 | 4.0 | 13.0 | 0.00 | 0.40 | 0.00 | 66 | 1003.2 |
| 20260507143530 | 46 | 259 | 5.0 | 13.0 | 0.00 | 0.40 | 0.00 | 64 | 1003.1 |
| 20260507143033 | 46 | 280 | 3.0 | 13.0 | 0.00 | 0.40 | 0.00 | 67 | 1003.2 |
| 20260507142530 | 46 | 323 | 4.0 | 12.0 | 0.00 | 0.40 | 0.00 | 69 | 1003.2 |
| 20260507142027 | 45 | 315 | 6.0 | 13.0 | 0.00 | 0.40 | 0.00 | 67 | 1003.2 |
| 20260507141529 | 45 | 328 | 7.0 | 13.0 | 0.00 | 0.40 | 0.00 | 76 | 1003.0 |
| 20260507141027 | 44 | 341 | 4.0 | 16.0 | 0.00 | 0.40 | 0.00 | 69 | 1003.2 |
| 20260507140526 | 44 | 360 | 5.0 | 16.0 | 0.00 | 0.41 | 0.00 | 69 | 1003.1 |
| 20260507140027 | 44 | 324 | 2.0 | 9.0 | 0.00 | 0.41 | 0.00 | 72 | 1003.3 |
| 20260507135523 | 44 | 351 | 3.0 | 10.0 | 0.00 | 0.41 | 0.00 | 71 | 1003.3 |
| 20260507135023 | 44 | 360 | 4.0 | 10.0 | 0.00 | 0.41 | 0.00 | 69 | 1003.4 |
| 20260507134523 | 44 | 311 | 2.0 | 10.0 | 0.00 | 0.41 | 0.00 | 74 | 1003.3 |
| 20260507134024 | 43 | 240 | 4.0 | 13.0 | 0.00 | 0.41 | 0.00 | 73 | 1003.2 |
| 20260507133521 | 42 | 282 | 5.0 | 13.0 | 0.00 | 0.41 | 0.00 | 73 | 1003.3 |
| 20260507133021 | 42 | 296 | 7.0 | 16.0 | 0.00 | 0.41 | 0.00 | 76 | 1003.3 |
| 20260507132519 | 42 | 319 | 7.0 | 16.0 | 0.00 | 0.41 | 0.00 | 72 | 1003.4 |
| 20260507132018 | 42 | 265 | 8.0 | 15.0 | 0.00 | 0.41 | 0.00 | 76 | 1003.2 |
| 20260507131517 | 43 | 315 | 5.0 | 12.0 | 0.00 | 0.41 | 0.00 | 85 | 1003.2 |
| 20260507131018 | 42 | 281 | 5.0 | 12.0 | 0.00 | 0.41 | 0.00 | 82 | 1003.1 |
| 20260507130516 | 42 | 360 | 3.0 | 14.0 | 0.00 | 0.46 | 0.00 | 79 | 1003.1 |
| 20260507130027 | 42 | 292 | 4.0 | 14.0 | 0.00 | 0.46 | 0.00 | 86 | 1003.2 |
| 20260507125513 | 42 | 194 | 5.0 | 14.0 | 0.00 | 0.46 | 0.00 | 83 | 1003.3 |
| 20260507125012 | 42 | 346 | 6.0 | 14.0 | 0.00 | 0.46 | 0.00 | 84 | 1003.1 |
| 20260507124516 | 42 | 348 | 5.0 | 10.0 | 0.00 | 0.46 | 0.00 | 86 | 1003.2 |
| 20260507124010 | 41 | 342 | 1.0 | 6.0 | 0.00 | 0.46 | 0.00 | 89 | 1003.1 |
| 20260507123511 | 41 | 305 | 2.0 | 8.0 | 0.00 | 0.46 | 0.00 | 89 | 1003.2 |
| 20260507123009 | 41 | 319 | 3.0 | 8.0 | 0.00 | 0.46 | 0.00 | 90 | 1003.2 |
| 20260507122507 | 41 | 317 | 3.0 | 12.0 | 0.00 | 0.46 | 0.00 | 90 | 1003.2 |